Date String (YYYY-MM-DD hh:mm:ss) UTC,Instrument flags,absolute air pressure of the measurement (hPa),sample flow rate (lpm),inlet stack bypass flow (lpm),air temperature of the measurement (°C),ambient temperature measured by the external sensor (°C),aerosol sample conditioner tube jacket temperature (°C),OPC LED temperature (°C),internal box temperature (°C),relative humidity of the measurement (%),span deviation,mass concentration of particles derived from Lorenz-Mie calculation of OPC scattering (μg/m³),mass concentration of particles derived from Lorenz-Mie calculation of OPC scattering (μg/m³),mass concentration of particles derived from Lorenz-Mie calculation of OPC scattering (μg/m³)
DateTimeUTC,F1_M11,P_M11,Q1_M11,Q2_M11,T1_M11,T2_M11,T3_M11,T4_M11,T5_M11,U1_M11,ZSPAN_M11,X0_M11,X2_M11,X1_M11
2023-07-22 04:00:00,SystemResetWarning,0837.0,4.99,000.00,029.1,027.0,000.0,037.7,030.7,29.7,0000.0,0007.89,0005.19,0004.76
2023-07-22 04:01:00,SystemResetWarning,0837.0,5.00,000.00,029.2,027.2,000.0,037.7,030.7,29.8,0000.0,0007.81,0005.03,0004.64
2023-07-22 04:02:00,SystemResetWarning,0837.0,5.01,000.00,029.2,027.4,000.0,037.7,030.8,29.9,0000.0,0007.74,0004.92,0004.53
2023-07-22 04:03:00,SystemResetWarning,0837.0,5.00,000.00,029.2,027.6,000.0,037.7,030.8,29.2,0000.0,0007.61,0004.81,0004.43
2023-07-22 04:04:00,SystemResetWarning,0837.0,4.99,000.00,029.2,027.8,000.0,037.7,030.9,28.3,0000.0,0007.43,0004.68,0004.32
2023-07-22 04:05:00,SystemResetWarning,0837.0,5.00,000.00,029.3,027.9,000.0,037.7,030.9,28.0,0000.0,0007.26,0004.59,0004.25
2023-07-22 04:06:00,SystemResetWarning,0837.0,5.00,000.00,029.3,028.0,000.0,037.7,031.0,27.7,0000.0,0007.25,0004.56,0004.21
2023-07-22 04:07:00,SystemResetWarning,0836.9,5.00,000.00,029.3,028.1,000.0,037.7,031.0,27.8,0000.0,0007.31,0004.55,0004.18
2023-07-22 04:08:00,SystemResetWarning,0837.0,5.00,000.00,029.4,028.2,000.0,037.8,031.0,27.7,0000.0,0007.88,0004.56,0004.16
2023-07-22 04:09:00,SystemResetWarning,0836.9,4.98,000.00,029.4,028.3,000.0,037.8,031.1,26.7,0000.0,0008.27,0004.60,0004.16
2023-07-22 04:10:00,SystemResetWarning,0837.0,5.01,000.00,029.4,028.3,000.0,037.8,031.1,26.7,0000.0,0008.46,0004.61,0004.17
2023-07-22 04:11:00,SystemResetWarning,0837.0,5.01,000.00,029.5,028.4,000.0,037.8,031.2,26.7,0000.0,0008.58,0004.65,0004.18
2023-07-22 04:12:00,SystemResetWarning,0837.0,5.00,000.00,029.5,028.5,000.0,037.9,031.2,26.3,0000.0,0009.03,0004.69,0004.20
2023-07-22 04:13:00,SystemResetWarning,0837.1,4.99,000.00,029.5,028.2,000.0,037.9,031.2,26.4,0000.0,0009.27,0004.73,0004.22
2023-07-22 04:14:00,SystemResetWarning,0837.0,5.00,000.00,029.5,026.4,000.0,037.7,031.0,29.1,0000.0,0009.35,0004.75,0004.23
2023-07-22 04:15:00,SystemResetWarning,0837.0,5.01,000.00,029.4,025.3,000.0,037.6,030.7,29.2,0000.0,0009.52,0004.79,0004.25
2023-07-22 04:16:00,SystemResetWarning,0837.0,5.01,000.00,029.3,025.2,000.0,037.6,030.5,29.0,0000.0,0009.54,0004.80,0004.26
2023-07-22 04:17:00,SystemResetWarning,0837.0,4.99,000.00,029.2,025.5,000.0,037.7,030.4,28.6,0000.0,0009.60,0004.84,0004.26
2023-07-22 04:18:00,SystemResetWarning,0837.0,5.00,000.00,029.1,025.9,000.0,037.7,030.5,28.6,0000.0,0009.75,0004.85,0004.27
2023-07-22 04:19:00,SystemResetWarning,0836.9,5.01,000.00,029.1,026.3,000.0,037.7,030.6,28.5,0000.0,0009.45,0004.85,0004.27
2023-07-22 04:20:00,SystemResetWarning,0837.0,4.99,000.00,029.1,026.7,000.0,037.7,030.6,28.2,0000.0,0009.72,0004.79,0004.26
2023-07-22 04:21:00,SystemResetWarning,0837.0,4.99,000.00,029.1,027.0,000.0,037.7,030.7,28.0,0000.0,0009.88,0004.77,0004.24
2023-07-22 04:22:00,SystemResetWarning,0837.0,5.00,000.00,029.2,027.2,000.0,037.7,030.7,27.8,0000.0,0009.89,0004.75,0004.24
2023-07-22 04:23:00,SystemResetWarning,0837.0,5.01,000.00,029.2,027.4,000.0,037.7,030.8,27.8,0000.0,0009.56,0004.76,0004.24
2023-07-22 04:24:00,SystemResetWarning,0837.0,5.01,000.00,029.2,027.6,000.0,037.7,030.8,27.5,0000.0,0009.15,0004.75,0004.25
2023-07-22 04:25:00,SystemResetWarning,0837.0,5.00,000.00,029.2,027.8,000.0,037.7,030.8,27.4,0000.0,0009.81,0004.75,0004.26
2023-07-22 04:26:00,SystemResetWarning,0837.0,4.98,000.00,029.3,027.9,000.0,037.7,030.9,27.3,0000.0,0009.80,0004.78,0004.30
2023-07-22 04:27:00,SystemResetWarning,0837.0,5.00,000.00,029.3,028.0,000.0,037.7,030.9,27.2,0000.0,0009.86,0004.80,0004.31
2023-07-22 04:28:00,SystemResetWarning,0836.9,5.01,000.00,029.3,028.1,000.0,037.7,031.0,27.0,0000.0,0010.04,0004.77,0004.32
2023-07-22 04:29:00,SystemResetWarning,0836.9,5.01,000.00,029.3,028.1,000.0,037.8,031.0,27.0,0000.0,0010.06,0004.74,0004.32
2023-07-22 04:30:00,SystemResetWarning,0836.9,4.99,000.00,029.4,028.2,000.0,037.8,031.0,26.9,0000.0,0010.47,0004.76,0004.33
2023-07-22 04:31:00,SystemResetWarning,0836.9,4.98,000.00,029.4,028.3,000.0,037.8,031.1,27.4,0000.0,0009.99,0004.78,0004.35
2023-07-22 04:32:00,SystemResetWarning,0837.0,5.01,000.00,029.4,028.3,000.0,037.8,031.1,27.4,0000.0,0009.75,0004.78,0004.36
2023-07-22 04:33:00,SystemResetWarning,0836.9,5.01,000.00,029.5,028.4,000.0,037.8,031.1,26.9,0000.0,0009.70,0004.78,0004.37
2023-07-22 04:34:00,SystemResetWarning,0836.9,5.01,000.00,029.5,028.4,000.0,037.9,031.2,27.7,0000.0,0009.99,0004.79,0004.38
2023-07-22 04:35:00,SystemResetWarning,0837.0,4.98,000.00,029.5,028.4,000.0,037.9,031.2,27.6,0000.0,0010.20,0004.77,0004.36
2023-07-22 04:36:00,SystemResetWarning,0837.0,5.01,000.00,029.6,028.4,000.0,037.9,031.2,27.1,0000.0,0010.13,0004.75,0004.36
2023-07-22 04:37:00,SystemResetWarning,0837.0,5.01,000.00,029.6,028.5,000.0,037.9,031.2,26.9,0000.0,0010.02,0004.70,0004.35
2023-07-22 04:38:00,SystemResetWarning,0837.0,4.98,000.00,029.6,027.5,000.0,037.9,031.1,27.0,0000.0,0010.10,0004.71,0004.36
2023-07-22 04:39:00,SystemResetWarning,0837.0,5.00,000.00,029.5,025.7,000.0,037.8,030.9,27.3,0000.0,0009.87,0004.76,0004.39
2023-07-22 04:40:00,SystemResetWarning,0837.0,5.00,000.00,029.4,025.1,000.0,037.7,030.7,27.5,0000.0,0009.79,0004.78,0004.41
2023-07-22 04:41:00,SystemResetWarning,0837.0,5.01,000.00,029.3,025.3,000.0,037.7,030.4,27.5,0000.0,0009.41,0004.82,0004.43
2023-07-22 04:42:00,SystemResetWarning,0836.9,5.00,000.00,029.2,025.7,000.0,037.7,030.5,27.4,0000.0,0009.39,0004.84,0004.44
2023-07-22 04:43:00,SystemResetWarning,0836.9,5.00,000.00,029.2,026.1,000.0,037.8,030.6,27.4,0000.0,0010.07,0004.88,0004.45
2023-07-22 04:44:00,SystemResetWarning,0836.9,5.00,000.00,029.2,026.5,000.0,037.8,030.6,27.3,0000.0,0010.44,0004.92,0004.47
2023-07-22 04:45:00,SystemResetWarning,0837.0,5.00,000.00,029.2,026.8,000.0,037.8,030.7,27.5,0000.0,0010.26,0004.92,0004.48
2023-07-22 04:46:00,SystemResetWarning,0837.0,5.00,000.00,029.2,027.1,000.0,037.7,030.7,28.0,0000.0,0010.02,0004.94,0004.48
2023-07-22 04:47:00,SystemResetWarning,0836.9,5.00,000.00,029.2,027.3,000.0,037.7,030.8,28.0,0000.0,0009.50,0004.97,0004.50
2023-07-22 04:48:00,SystemResetWarning,0836.9,5.00,000.00,029.3,027.5,000.0,037.8,030.8,27.7,0000.0,0009.37,0005.01,0004.52
2023-07-22 04:49:00,SystemResetWarning,0837.0,4.99,000.00,029.3,027.7,000.0,037.8,030.9,28.1,0000.0,0009.24,0004.99,0004.54
2023-07-22 04:50:00,SystemResetWarning,0837.0,5.00,000.00,029.3,027.8,000.0,037.8,030.9,27.6,0000.0,0009.47,0005.00,0004.55
2023-07-22 04:51:00,SystemResetWarning,0837.0,5.00,000.00,029.3,027.9,000.0,037.8,030.9,27.3,0000.0,0010.07,0005.03,0004.57
2023-07-22 04:52:00,SystemResetWarning,0836.9,5.00,000.00,029.3,028.0,000.0,037.8,031.0,27.9,0000.0,0010.01,0005.01,0004.59
2023-07-22 04:53:00,SystemResetWarning,0836.9,5.01,000.00,029.4,028.1,000.0,037.8,031.0,27.5,0000.0,0009.94,0005.03,0004.62
2023-07-22 04:54:00,SystemResetWarning,0837.0,5.00,000.00,029.4,028.1,000.0,037.8,031.0,27.9,0000.0,0009.15,0005.09,0004.66
2023-07-22 04:55:00,SystemResetWarning,0837.0,5.00,000.00,029.4,028.2,000.0,037.8,031.1,28.6,0000.0,0008.91,0005.08,0004.68
2023-07-22 04:56:00,SystemResetWarning,0837.0,5.00,000.00,029.5,028.2,000.0,037.9,031.1,28.3,0000.0,0008.97,0005.10,0004.70
2023-07-22 04:57:00,SystemResetWarning,0836.9,5.00,000.00,029.5,028.3,000.0,037.9,031.1,28.5,0000.0,0008.98,0005.13,0004.72
2023-07-22 04:58:00,SystemResetWarning,0836.9,5.00,000.00,029.5,028.3,000.0,037.9,031.2,28.1,0000.0,0009.06,0005.17,0004.73
2023-07-22 04:59:00,SystemResetWarning,0837.0,4.98,000.00,029.5,028.4,000.0,037.9,031.2,28.6,0000.0,0009.13,0005.18,0004.74
